DELTA 1 DEB, 12529

Orbit data source: Space-Track

DELTA 1 DEB, 12529 is space debris in LEO originally from a launch on Thu, 29 Jul 1976 UTC launched from the Air Force Western Test Range (AFWTR). Debris objects in space refer to the collection of defunct objects orbiting the Earth. Examples of debris include non-operational satellites, rocket bodies, and fragments generated from explosions, collisions, or faulty payload assembly.

Loading next visibility...
Identifier
12529, 1976-077DJ
Orbit
LEO
Country
Flag of USUS
Related business
Manufacturer
Unknown
Mission
Spacecraft
Bus & Motor
Unknown
Mass
Unknown
Launch date (UTC)
1976-07-29 (50 years ago)
Launch vehicle
Unknown
Launch site
Air Force Western Test Range (AFWTR)
Object type
Payload
Rocket body
Debris
Shape & HBR
Unknown shape, 0.4 m
Radar Cross Section
Medium (>0.1 m² and <1 m²)

Expand to show TLE details & history
Last TLE update: 7 hours ago

TLE from 7 hours ago
0 DELTA 1 DEB
1 12529U 76077DJ  26119.08532723 -.00013126  00000-0 -21343+0 0  9992
2 12529 103.5182 244.3626 0748568 213.1691 142.0171 11.25139730826441
Epoch: 2026-04-29T02:02Z
TLE epoch observation values (Epoch: 2026-04-29T02:02:52.272Z)
Latitude
-0.00001°
Longitude
-3.40655°
Altitude
2,549.603 km
Speed
6.476 km/s
True Right ascension
16h 17m 27s
True Declination
0° 00' 00"
Sunlit
Object was in full shadow at epoch
Visualization orbit readout
Latitude
Unknown
Longitude
Unknown
Altitude
Unknown
Speed
Unknown
Apparent Right ascension
Unknown
Apparent Declination
Unknown
Sunlit
N/A
Visualization observer readout
Local Sidereal Time
16:44:47
Azimuth
Unknown
Elevation
Unknown
Doppler factor
Unknown
Orbital elements
Apogee altitude
2,661.85 km
Perigee altitude
1,402.697 km
Semi-major axis
8,410.411 km
Eccentricity
0.07486
Inclination
103.5182°
RAAN
244.3626°
Arg. of periapsis
213.1691°
True anomaly
146.92675°
Mean anomaly
142.0171°
Eccentric anomaly
144.50728°
Mean motion
2.81396 °/min
Orbital period
127.93 mins
BSTAR
-0.21343
Loading maneuver chart data...
Computing Atmospheric mass density...
Loading historical data...
Loading historical data...
Loading historical data...
Loading historical data...
Loading historical data...
Loading historical data...
Loading historical data...

Documentation

Showing up to 5 results
|